• In Hungary
  • List of Countries
  • For 7 days
  • Water Temperature
  • Satellite Maps
  • Weather Map
  • News
  • Weather Widgets
  • user-avatar
    Login

    Hourly Weather Antwerp

    Today, 24 September, Monday

    Time Temperature Precipitation Wind Pressure Humidity
    00:00 +8°C° 0 mm 3 mps 770 mmHg 83%
    01:00 +8°C° 0 mm 3 mps 771 mmHg 83%
    02:00 +8°C° 0 mm 3 mps 771 mmHg 83%
    03:00 +8°C° 0 mm 3 mps 772 mmHg 83%
    04:00 +8°C° 0 mm 3 mps 772 mmHg 83%
    05:00 +8°C° 0 mm 3 mps 773 mmHg 84%
    06:00 +8°C° 0 mm 3 mps 773 mmHg 84%
    07:00 +10°C° 0.2 mm 3 mps 774 mmHg 80%
    08:00 +11°C° 0.2 mm 4 mps 774 mmHg 76%
    09:00 +13°C° 0.2 mm 4 mps 774 mmHg 72%
    10:00 +13°C° 0.2 mm 4 mps 775 mmHg 69%
    11:00 +14°C° 0.2 mm 5 mps 775 mmHg 65%
    12:00 +14°C° 0.2 mm 5 mps 775 mmHg 62%
    13:00 +15°C° 0.1 mm 5 mps 775 mmHg 60%
    14:00 +15°C° 0.1 mm 5 mps 775 mmHg 58%
    15:00 +15°C° 0.1 mm 5 mps 775 mmHg 56%
    16:00 +13°C° 0 mm 4 mps 775 mmHg 60%
    17:00 +12°C° 0 mm 4 mps 775 mmHg 65%
    18:00 +10°C° 0 mm 3 mps 776 mmHg 70%
    19:00 +10°C° 0 mm 2 mps 776 mmHg 72%
    20:00 +9°C° 0 mm 2 mps 777 mmHg 74%
    21:00 +9°C° 0 mm 2 mps 777 mmHg 77%
    22:00 +9°C° 0 mm 1 mps 777 mmHg 78%
    23:00 +9°C° 0 mm 1 mps 777 mmHg 80%

    Tomorrow, 25 September, Tuesday

    Time Temperature Precipitation Wind Pressure Humidity
    00:00 +8°C° 0 mm 0 mps 777 mmHg 81%
    01:00 +8°C° 0 mm 0 mps 777 mmHg 82%
    02:00 +7°C° 0 mm 0 mps 777 mmHg 83%
    03:00 +7°C° 0 mm 0 mps 777 mmHg 84%
    04:00 +7°C° 0 mm 0 mps 777 mmHg 85%
    05:00 +7°C° 0 mm 0 mps 777 mmHg 85%
    06:00 +8°C° 0 mm 1 mps 778 mmHg 85%
    07:00 +10°C° 0 mm 1 mps 778 mmHg 78%
    08:00 +12°C° 0 mm 1 mps 778 mmHg 71%
    09:00 +14°C° 0 mm 1 mps 778 mmHg 64%
    10:00 +14°C° 0 mm 1 mps 778 mmHg 59%
    11:00 +15°C° 0 mm 2 mps 778 mmHg 54%
    12:00 +16°C° 0 mm 2 mps 778 mmHg 49%
    13:00 +16°C° 0 mm 2 mps 777 mmHg 48%
    14:00 +18°C° 0 mm 1 mps 777 mmHg 47%
    15:00 +18°C° 0 mm 1 mps 776 mmHg 46%
    16:00 +15°C° 0 mm 1 mps 776 mmHg 50%
    17:00 +14°C° 0 mm 1 mps 776 mmHg 55%
    18:00 +12°C° 0 mm 1 mps 776 mmHg 59%
    19:00 +12°C° 0 mm 1 mps 776 mmHg 61%
    20:00 +11°C° 0 mm 1 mps 776 mmHg 63%
    21:00 +10°C° 0 mm 2 mps 777 mmHg 64%
    22:00 +9°C° 0 mm 2 mps 776 mmHg 66%
    23:00 +9°C° 0 mm 2 mps 776 mmHg 67%

    Day after tomorrow, 26 September, Wednesday

    Time Temperature Precipitation Wind Pressure Humidity
    00:00 +8°C° 0 mm 2 mps 776 mmHg 69%
    01:00 +8°C° 0 mm 2 mps 776 mmHg 69%
    02:00 +8°C° 0 mm 2 mps 776 mmHg 69%
    03:00 +8°C° 0 mm 2 mps 775 mmHg 69%
    04:00 +8°C° 0 mm 2 mps 775 mmHg 68%
    05:00 +7°C° 0 mm 2 mps 775 mmHg 68%
    06:00 +7°C° 0 mm 2 mps 775 mmHg 67%
    07:00 +9°C° 0 mm 2 mps 775 mmHg 61%
    08:00 +12°C° 0 mm 2 mps 775 mmHg 56%
    09:00 +14°C° 0 mm 2 mps 775 mmHg 50%
    10:00 +16°C° 0 mm 2 mps 775 mmHg 47%
    11:00 +17°C° 0 mm 2 mps 775 mmHg 43%
    12:00 +19°C° 0 mm 2 mps 774 mmHg 40%
    13:00 +19°C° 0 mm 2 mps 774 mmHg 40%
    14:00 +19°C° 0 mm 2 mps 774 mmHg 40%
    15:00 +19°C° 0 mm 2 mps 773 mmHg 39%
    16:00 +19°C° 0 mm 1 mps 773 mmHg 44%
    17:00 +16°C° 0 mm 1 mps 773 mmHg 49%
    18:00 +14°C° 0 mm 1 mps 773 mmHg 54%
    19:00 +14°C° 0 mm 1 mps 773 mmHg 55%
    20:00 +13°C° 0 mm 1 mps 774 mmHg 57%
    21:00 +13°C° 0 mm 1 mps 774 mmHg 58%
    22:00 +12°C° 0 mm 1 mps 774 mmHg 59%
    23:00 +12°C° 0 mm 1 mps 773 mmHg 59%

    27 September, Thursday

    Time Temperature Precipitation Wind Pressure Humidity
    00:00 +12°C° 0 mm 2 mps 773 mmHg 60%
    01:00 +12°C° 0 mm 1 mps 773 mmHg 60%
    02:00 +11°C° 0 mm 1 mps 773 mmHg 61%
    03:00 +11°C° 0 mm 1 mps 773 mmHg 62%
    04:00 +11°C° 0 mm 1 mps 773 mmHg 63%
    05:00 +10°C° 0 mm 2 mps 772 mmHg 64%
    06:00 +9°C° 0 mm 2 mps 772 mmHg 64%
    07:00 +12°C° 0 mm 2 mps 772 mmHg 60%
    08:00 +14°C° 0 mm 2 mps 772 mmHg 55%
    09:00 +17°C° 0 mm 2 mps 772 mmHg 50%
    10:00 +18°C° 0 mm 2 mps 771 mmHg 47%
    11:00 +19°C° 0 mm 2 mps 771 mmHg 43%
    12:00 +21°C° 0 mm 2 mps 771 mmHg 40%
    13:00 +21°C° 0 mm 2 mps 770 mmHg 40%
    14:00 +21°C° 0 mm 2 mps 770 mmHg 41%
    15:00 +23°C° 0 mm 2 mps 769 mmHg 41%
    16:00 +21°C° 0 mm 1 mps 769 mmHg 46%
    17:00 +19°C° 0 mm 1 mps 769 mmHg 51%
    18:00 +16°C° 0 mm 1 mps 768 mmHg 57%
    19:00 +15°C° 0 mm 1 mps 768 mmHg 58%
    20:00 +15°C° 0 mm 1 mps 768 mmHg 60%
    21:00 +14°C° 0 mm 1 mps 768 mmHg 61%
    22:00 +14°C° 0 mm 1 mps 768 mmHg 62%
    23:00 +13°C° 0 mm 1 mps 768 mmHg 64%

    28 September, Friday

    Time Temperature Precipitation Wind Pressure Humidity
    00:00 +13°C° 0 mm 1 mps 767 mmHg 65%
    01:00 +13°C° 0 mm 1 mps 767 mmHg 66%
    02:00 +12°C° 0 mm 1 mps 767 mmHg 67%
    03:00 +12°C° 0 mm 1 mps 766 mmHg 68%
    04:00 +12°C° 0 mm 1 mps 766 mmHg 69%
    05:00 +11°C° 0 mm 1 mps 766 mmHg 71%
    06:00 +11°C° 0 mm 1 mps 766 mmHg 73%
    07:00 +13°C° 0 mm 1 mps 766 mmHg 67%
    08:00 +14°C° 0 mm 0 mps 766 mmHg 61%
    09:00 +17°C° 0 mm 0 mps 766 mmHg 55%
    10:00 +20°C° 0 mm 1 mps 766 mmHg 51%
    11:00 +21°C° 0 mm 1 mps 766 mmHg 48%
    12:00 +21°C° 0 mm 2 mps 766 mmHg 45%
    13:00 +21°C° 0 mm 3 mps 766 mmHg 46%
    14:00 +21°C° 0 mm 3 mps 766 mmHg 47%
    15:00 +21°C° 0 mm 4 mps 766 mmHg 49%
    16:00 +19°C° 0 mm 4 mps 766 mmHg 57%
    17:00 +17°C° 0 mm 5 mps 767 mmHg 64%
    18:00 +15°C° 0 mm 5 mps 767 mmHg 72%
    19:00 +14°C° 0 mm 5 mps 768 mmHg 75%
    20:00 +13°C° 0 mm 5 mps 768 mmHg 78%
    21:00 +12°C° 0 mm 5 mps 769 mmHg 81%
    22:00 +12°C° 0 mm 5 mps 769 mmHg 80%
    23:00 +10°C° 0 mm 5 mps 769 mmHg 79%

    29 September, Saturday

    Time Temperature Precipitation Wind Pressure Humidity
    00:00 +9°C° 0 mm 5 mps 769 mmHg 79%
    01:00 +9°C° 0 mm 5 mps 769 mmHg 80%
    02:00 +8°C° 0 mm 4 mps 769 mmHg 81%
    03:00 +8°C° 0 mm 4 mps 769 mmHg 82%
    04:00 +8°C° 0 mm 4 mps 769 mmHg 83%
    05:00 +7°C° 0 mm 4 mps 769 mmHg 84%
    06:00 +7°C° 0 mm 4 mps 770 mmHg 86%
    07:00 +8°C° 0 mm 4 mps 770 mmHg 78%
    08:00 +10°C° 0 mm 5 mps 770 mmHg 70%
    09:00 +12°C° 0 mm 5 mps 770 mmHg 63%
    10:00 +14°C° 0 mm 5 mps 769 mmHg 58%
    11:00 +15°C° 0 mm 5 mps 769 mmHg 54%
    12:00 +16°C° 0 mm 5 mps 769 mmHg 50%
    13:00 +16°C° 0 mm 5 mps 768 mmHg 48%
    14:00 +16°C° 0 mm 5 mps 768 mmHg 47%
    15:00 +16°C° 0 mm 5 mps 768 mmHg 45%
    16:00 +15°C° 0 mm 4 mps 768 mmHg 47%
    17:00 +13°C° 0 mm 4 mps 768 mmHg 50%
    18:00 +11°C° 0 mm 4 mps 768 mmHg 52%
    19:00 +11°C° 0 mm 3 mps 768 mmHg 52%
    20:00 +10°C° 0 mm 3 mps 768 mmHg 52%
    21:00 +9°C° 0 mm 3 mps 768 mmHg 52%
    22:00 +9°C° 0 mm 3 mps 767 mmHg 55%
    23:00 +8°C° 0 mm 3 mps 767 mmHg 57%
    Show more